This demonstration page uses our WeatherBlox Daily Observations layout. Learn more.

Left ArrowRight Arrow

41.55636, -103.73856

Hourly Observations for April 20, 2018

Temp ( °F °C ) Dew Point ( °F °C ) Humidity (%) Winds ( mph kmh ) Pressure ( in mb ) Visibility ( mi km ) Precip ( " mm )
12:58 am 00:58 Clear 38 3.3 26 -3.6 61 61 SSE 25 41 30.03 1017 10 16 N/A
1:58 am 01:58 Mostly Clear 37 2.7 25 -4.1 61 61 SE 26 43 30.01 1016 10 16 N/A
2:58 am 02:58 Clear 35 1.9 25 -3.9 66 66 SE 24 39 30.01 1016 10 16 N/A
3:58 am 03:58 Clear 35 1.5 25 -3.8 68 68 SE 30 48 29.98 1015 10 16 N/A
4:58 am 04:58 Mostly Cloudy 34 1.2 26 -3.5 71 71 SE 28 44 29.98 1015 10 16 N/A
5:58 am 05:58 Mostly Cloudy 34 1.1 26 -3.3 73 73 SE 28 44 29.99 1016 10 16 N/A
6:58 am 06:58 Partly Cloudy 35 1.4 27 -3 73 73 SE 22 35 30.02 1017 10 16 N/A
7:58 am 07:58 Sunny 37 2.5 28 -2.4 70 70 SE 21 33 30.04 1017 10 16 N/A
8:58 am 08:58 Sunny 39 3.7 28 -2.1 66 66 SE 21 33 30.04 1017 10 16 N/A
9:58 am 09:58 Sunny 42 5.5 29 -1.9 59 59 SSE 25 41 30.03 1017 10 16 N/A
10:58 am 10:58 Mostly Sunny 41 4.9 29 -1.4 64 64 SSE 35 56 30.06 1018 10 16 N/A
11:58 am 11:58 Cloudy 38 3.4 32 0.1 79 79 SE 29 46 30.07 1018 10 16 N/A
12:58 pm 12:58 Cloudy 36 2.1 32 0.1 87 87 SE 28 44 30.08 1019 10 16 N/A
1:58 pm 13:58 Cloudy 35 1.6 32 0.1 90 90 SE 28 44 30.09 1019 10 16 N/A
2:58 pm 14:58 Cloudy 35 1.9 33 0.3 89 89 SSE 30 48 30.09 1019 10 16 N/A
3:58 pm 15:58 Cloudy 35 1.4 33 0.6 94 94 SE 25 41 30.12 1020 9 14 N/A
4:58 pm 16:58 Windy with Rain Showers Likely 35 1.9 34 0.9 93 93 SSE 22 35 30.13 1020 10 16 N/A
5:58 pm 17:58 Cloudy with Light Rain 35 1.5 34 0.9 96 96 SSE 26 43 30.13 1020 9 14 N/A
6:58 pm 18:58 Cloudy 35 1.4 33 0.8 96 96 SSE 22 35 30.18 1022 9 14 N/A
7:58 pm 19:58 Cloudy with Light Showers 34 1.3 34 0.9 97 97 SSE 13 20 30.20 1023 10 16 N/A
8:58 pm 20:58 Cloudy with Light Showers 34 1.2 34 0.9 98 98 SE 15 24 30.19 1022 3 5 N/A
9:58 pm 21:58 Cloudy with Drizzle 35 1.5 34 1.2 98 98 SE 15 24 30.19 1022 6 10 0.01 0.25
10:58 pm 22:58 Cloudy with Light Showers 34 1.3 34 1 98 98 SE 18 30 30.22 1023 7 11 0.01 0.25
11:58 pm 23:58 Cloudy with Light Rain 33 0.7 33 0.4 98 98 SE 14 22 30.25 1024 9 14 0.02 0.51

Powered by AerisWeather